STARLINK-36051

Last updated on Mon Dec 15 2025 00:02:11 GMT+0000 (Coordinated Universal Time)

1 66793U 25278C 25348.25003472 -.01216844 00000+0 -61802-2 0 9996 2 66793 42.9972 242.8243 0001933 274.3949 104.7636 15.83100255 3106
UTC large
Height (km)
Speed (km/s)
/
Latitude / Longitude
Inclination (degrees)
Orbital Period (minutes)
Azimuth
Elevation
Range (km)
Doppler Factor

Next 0 passes for location: London (51.5072 / 0.1276)

Sorry there are no passes over London.